Back to catalog

STARLINK-3622

AliveCommunicationsVLEO
NORAD 51768·PAYLOAD·🇺🇸 United States

Launched Feb 25, 2022 from Vandenberg Space Force Base

Loading…

Next Passes (next 24 hours)

TLE

FreshSource: CelesTrak SupGP

Epoch: Sep 15, 2026, 01:15 UTC

1 51768C 22017A   26258.05256944 -.00026778  00000+0 -79125-3 0  2583
2 51768  53.1601 196.8513 0001368  84.1024   7.9147 15.34400568    10

Track STARLINK-3622 in real time with AllMySat

Download on the App Store